RCAMPBELL Weather Reports


Display with metric or nautical units.
time (UTC)temp
F
wind
direction
speed
MPH
gust
MPH
rain 1hr
in
rain 24hr
in
rain mn
in
humidity
%
barometer
mb
20260506073037 54 158 18.0 28.0 0.00 0.00 0.00 88 1014.7
20260506071537 54 163 19.0 28.0 0.00 0.00 0.00 89 1014.6
20260506061537 55 146 18.0 28.0 0.00 0.00 0.00 86 1014.5
20260506044539 57 169 12.0 21.0 0.00 0.00 0.00 83 1013.9
20260506043047 57 161 13.0 24.0 0.00 0.00 0.00 83 1013.8
20260506041539 57 171 13.0 23.0 0.00 0.00 0.00 82 1013.6
20260506040046 57 162 14.0 22.0 0.00 0.00 0.00 82 1013.5
20260506034538 57 148 14.0 22.0 0.00 0.00 0.00 82 1013.3
20260506033039 58 147 16.0 25.0 0.00 0.00 0.00 83 1013.2
20260506031539 58 138 16.0 27.0 0.00 0.00 0.00 83 1013.1
20260506030037 58 178 13.0 19.0 0.00 0.00 0.00 82 1013.0
20260506024543 58 142 16.0 26.0 0.00 0.00 0.00 82 1013.0
20260506023035 58 163 17.0 25.0 0.00 0.00 0.00 83 1013.2
20260506021551 58 156 15.0 23.0 0.00 0.00 0.00 82 1013.1
20260506020038 59 160 14.0 20.0 0.00 0.00 0.00 82 1013.1
20260506014550 59 167 12.0 20.0 0.00 0.00 0.00 82 1013.1
20260506013038 59 182 11.0 21.0 0.00 0.00 0.00 81 1013.1
20260506011544 60 167 12.0 18.0 0.00 0.00 0.00 81 1013.1
20260506010047 61 169 12.0 20.0 0.00 0.00 0.00 78 1013.1
20260506004537 61 180 13.0 21.0 0.00 0.00 0.00 79 1013.1
20260506003038 61 180 12.0 20.0 0.00 0.00 0.00 80 1013.1
20260506001537 60 202 14.0 21.0 0.00 0.00 0.00 79 1013.3
20260506000039 61 199 12.0 20.0 0.00 0.00 0.00 80 1013.4
20260505234602 60 171 12.0 20.0 0.00 0.00 0.00 81 1013.5
20260505233038 61 163 12.0 21.0 0.00 0.00 0.00 81 1013.7
20260505231539 60 180 12.0 21.0 0.00 0.00 0.00 81 1013.7
20260505230042 60 196 14.0 22.0 0.00 0.00 0.00 81 1013.7
20260505224538 60 198 13.0 21.0 0.00 0.00 0.00 82 1013.8
20260505223037 60 182 13.0 20.0 0.00 0.00 0.00 80 1014.0
20260505221537 60 184 12.0 21.0 0.00 0.00 0.00 81 1014.2
20260505220037 61 191 11.0 19.0 0.00 0.00 0.00 81 1014.2
20260505214550 61 198 11.0 19.0 0.00 0.00 0.00 81 1014.2
20260505213037 61 178 11.0 17.0 0.00 0.00 0.00 80 1014.3
20260505211545 60 178 11.0 20.0 0.00 0.00 0.00 79 1014.4
20260505210038 61 167 9.0 19.0 0.00 0.00 0.00 80 1014.5
20260505204538 60 196 10.0 17.0 0.00 0.00 0.00 81 1014.6
20260505203049 60 209 9.0 14.0 0.00 0.00 0.00 81 1014.6
20260505201538 60 206 9.0 17.0 0.00 0.00 0.00 82 1014.5
20260505200038 60 204 8.0 17.0 0.00 0.00 0.00 81 1014.6
20260505194542 60 205 10.0 17.0 0.00 0.00 0.00 84 1014.6
20260505193033 59 213 10.0 17.0 0.00 0.00 0.00 83 1014.7
20260505191543 58 213 10.0 17.0 0.00 0.00 0.00 83 1014.8
20260505190042 58 159 9.0 15.0 0.00 0.00 0.00 85 1014.7
20260505184547 57 191 9.0 16.0 0.00 0.00 0.00 85 1014.8
20260505183042 57 187 8.0 15.0 0.00 0.00 0.00 86 1014.8
20260505181534 56 179 8.0 15.0 0.00 0.00 0.00 87 1014.7
20260505180033 56 186 8.0 15.0 0.00 0.00 0.00 87 1014.6
20260505174540 56 214 9.0 14.0 0.00 0.00 0.00 88 1014.5
20260505173037 56 181 8.0 17.0 0.00 0.00 0.00 89 1014.5
20260505171537 55 192 8.0 15.0 0.00 0.00 0.00 90 1014.5
20260505170039 54 190 9.0 17.0 0.00 0.00 0.00 91 1014.4
20260505164539 54 167 10.0 16.0 0.00 0.00 0.00 91 1014.5
20260505163104 54 186 9.0 15.0 0.00 0.00 0.00 91 1014.4
20260505161540 54 177 8.0 16.0 0.00 0.00 0.00 92 1014.3
20260505153044 53 158 8.0 17.0 0.00 0.00 0.00 92 1014.2
20260505151539 53 196 11.0 19.0 0.00 0.00 0.00 91 1014.1
20260505124536 53 166 20.0 28.0 0.00 0.00 0.00 90 1012.3
20260505123036 53 167 17.0 29.0 0.00 0.00 0.00 89 1012.2
20260505121540 53 177 19.0 28.0 0.00 0.00 0.00 89 1012.0
20260505120037 54 161 19.0 26.0 0.00 0.00 0.00 89 1011.9
20260505114538 54 156 18.0 30.0 0.00 0.00 0.00 88 1011.6
20260505113042 54 168 18.0 26.0 0.00 0.00 0.00 88 1011.6
20260505111544 54 184 17.0 27.0 0.00 0.00 0.00 88 1011.4
20260505101537 56 149 21.0 29.0 0.00 0.00 0.00 85 1010.8
20260505100037 56 159 20.0 33.0 0.00 0.00 0.00 84 1010.5
20260505094537 56 171 20.0 28.0 0.00 0.00 0.00 84 1010.4
20260505093046 56 150 15.0 24.0 0.00 0.00 0.00 81 1010.4
20260505091539 56 155 17.0 25.0 0.00 0.00 0.00 81 1010.3
20260505090037 57 151 16.0 22.0 0.00 0.00 0.00 79 1010.2
20260505084537 58 148 14.0 25.0 0.00 0.00 0.00 76 1010.0
20260505083045 58 150 18.0 29.0 0.00 0.00 0.00 77 1009.8
20260505081537 56 152 20.0 44.0 0.00 0.00 0.00 80 1009.7
20260505080041 56 171 24.0 34.0 0.00 0.00 0.00 82 1009.4